Waarnemingen

Advertentie
Mijn weer
Tiree, Groot Brittannië (3100): temperatuur & dauwpunt: 17.10.2018 13:00:00 - 23.10.2018 13:00:00 (BST)Tiree, Groot Brittannië (3100): temperatuur -20cm & temperatuur -100cm: 17.10.2018 13:00:00 - 23.10.2018 13:00:00 (BST)Tiree, Groot Brittannië (3100): windsnelheid & windstoten: 17.10.2018 13:00:00 - 23.10.2018 13:00:00 (BST)Tiree, Groot Brittannië (3100): windrichting: 17.10.2018 13:00:00 - 23.10.2018 13:00:00 (BST)Tiree, Groot Brittannië (3100): luchtdruk: 17.10.2018 13:00:00 - 23.10.2018 13:00:00 (BST)Tiree, Groot Brittannië (3100): zicht: 17.10.2018 13:00:00 - 23.10.2018 13:00:00 (BST)Tiree, Groot Brittannië (3100): Zonneschijnduur: 17.10.2018 13:00:00 - 23.10.2018 13:00:00 (BST)Tiree, Groot Brittannië (3100): neerslag: 17.10.2018 13:00:00 - 23.10.2018 13:00:00 (BST)
Datum & Tijd tt [°C] td [°C] tt -20cm [°C] tt -100cm [°C] ff [km/u] ff [kn] fx [km/u] fx [kn] dd ppp [hPa] vv [km] sd [min] rr [mm]
23.10.2018 13:00:00 11,8 11,0 - - 46 25 67 36 W 1027,5 5 0 -
23.10.2018 12:00:00 11,6 11,1 - - 42 23 63 34 W 1027,7 3,0 0 0,0
23.10.2018 11:00:00 11,5 10,9 - - 46 25 70 38 W 1027,6 2,1 0 0,0
23.10.2018 10:00:00 11,4 10,7 11,7 11,7 54 29 70 38 W 1026,6 6 0 0,0
23.10.2018 09:00:00 11,3 10,2 - - 46 25 67 36 W 1026,7 3,3 0 0,0
23.10.2018 08:00:00 11,2 10,2 - - 46 25 70 38 W 1026,9 5 0 1,2
23.10.2018 07:00:00 11,5 9,3 - - 52 28 70 38 W 1026,6 6 0 0,0
23.10.2018 06:00:00 11,5 8,6 - - 52 28 74 40 W 1026,6 7 0 0,0
23.10.2018 05:00:00 11,4 8,4 - - 52 28 74 40 W 1026,8 6 0 0,0
23.10.2018 04:00:00 11,2 8,3 - - 55 30 81 44 W 1026,9 7 0 0,0
23.10.2018 03:00:00 11,4 7,8 - - 55 30 76 41 W 1027,8 7 0 0,0
23.10.2018 02:00:00 11,5 8,3 - - 50 27 74 40 W 1028,1 7 0 0,0
23.10.2018 01:00:00 11,5 8,1 - - 52 28 81 44 W 1028,3 7 - 0,0
23.10.2018 00:00:00 11,4 8,3 - - 50 27 72 39 W 1028,7 7 0 0,0
22.10.2018 23:00:00 11,5 8,2 - - 48 26 74 40 W 1029,3 8 0 0,0
22.10.2018 22:00:00 11,5 8,2 - - 50 27 72 39 W 1029,7 8 0 0,0
22.10.2018 21:00:00 11,6 7,8 - - 54 29 74 40 W 1030,2 8 0 0,0
22.10.2018 20:00:00 11,6 8,0 - - 46 25 72 39 W 1031,0 8 0 0,0
22.10.2018 19:00:00 11,6 8,4 - - 44 24 65 35 W 1031,5 8 0 0,0
22.10.2018 18:00:00 11,5 8,2 - - 44 24 70 38 W 1031,6 8 0 0,0
22.10.2018 17:00:00 11,4 7,9 - - 50 27 68 37 W 1031,8 9 0 0,0
22.10.2018 16:00:00 11,5 7,5 - - 48 26 70 38 W 1032,2 9 0 0,0
22.10.2018 15:00:00 11,9 7,6 - - 50 27 70 38 WZW 1032,8 10 30 0,0
22.10.2018 14:00:00 12,0 8,3 - - 48 26 67 36 WZW 1033,5 10 24 0,0
22.10.2018 13:00:00 11,2 7,6 - - 42 23 63 34 WZW 1034,1 10 6 0,0
22.10.2018 12:00:00 11,2 8,2 - - 39 21 55 30 WZW 1034,4 15 6 0,0
22.10.2018 11:00:00 11,0 7,6 - - 39 21 55 30 W 1034,7 21 18 0,0
22.10.2018 10:00:00 10,9 7,5 11,7 11,7 39 21 50 27 WZW 1034,7 10 0 0,0
22.10.2018 09:00:00 10,3 6,1 - - 31 17 - - W 1035,1 10 0 0,0
22.10.2018 08:00:00 9,1 5,2 - - 26 14 - - W 1034,2 12 0 0,0
22.10.2018 07:00:00 8,9 5,8 - - 28 15 - - W 1034,4 11 0 0,0
22.10.2018 06:00:00 8,5 6,3 - - 31 17 52 28 W 1034,2 14 0 0,2
22.10.2018 05:00:00 8,8 7,0 - - 35 19 59 32 W 1033,9 4,8 0 0,0
22.10.2018 04:00:00 9,1 4,0 - - 39 21 52 28 WNW 1033,6 19 0 0,0
22.10.2018 03:00:00 8,9 4,2 - - 37 20 54 29 W 1033,2 19 0 0,0
22.10.2018 02:00:00 8,9 5,2 - - 37 20 54 29 WNW 1032,9 6 0 0,0
22.10.2018 01:00:00 8,9 3,6 - - 39 21 50 27 W 1032,7 13 - 0,0
22.10.2018 00:00:00 9,1 2,2 - - 39 21 52 28 WNW 1032,1 11 0 0,0
21.10.2018 23:00:00 8,6 3,9 - - 29 16 52 28 WNW 1031,4 13 0 0,0
21.10.2018 22:00:00 7,7 5,0 - - 37 20 57 31 W 1030,7 18 0 0,2
21.10.2018 21:00:00 9,1 3,9 - - 29 16 54 29 W 1030,3 17 0 0,0
21.10.2018 20:00:00 9,0 2,7 - - 35 19 50 27 W 1029,8 18 0 0,0
21.10.2018 19:00:00 9,3 3,2 - - 37 20 52 28 W 1028,9 19 0 0,0
21.10.2018 18:00:00 9,3 4,3 - - 37 20 61 33 W 1027,9 16 36 0,0
21.10.2018 17:00:00 10,3 3,4 - - 41 22 57 31 W 1027,1 19 30 0,0
21.10.2018 16:00:00 10,4 2,8 - - 41 22 61 33 W 1026,7 25 18 0,0
21.10.2018 15:00:00 10,6 3,3 - - 35 19 54 29 W 1026,1 20 6 0,0
21.10.2018 14:00:00 10,8 4,3 - - 37 20 54 29 W 1025,2 14 6 0,0
21.10.2018 13:00:00 11,0 6,5 - - 31 17 50 27 W 1024,4 12 24 0,0
21.10.2018 12:00:00 11,1 7,5 - - 31 17 46 25 WNW 1023,8 17 18 0,0
21.10.2018 11:00:00 10,6 9,2 - - 34 18 50 27 W 1023,1 10 0 0,6
21.10.2018 10:00:00 10,3 8,9 11,7 11,7 29 16 - - WZW 1022,6 5 0 0,0
21.10.2018 09:00:00 9,8 8,6 - - 18 10 - - ZW 1021,7 16 0 0,6
21.10.2018 08:00:00 9,6 8,7 - - 21 11 - - WZW 1021,8 5 0 0,4
21.10.2018 07:00:00 9,1 7,8 - - 16 9 - - W 1021,3 10 0 0,4
21.10.2018 06:00:00 9,9 9,6 - - 15 8 - - W 1020,5 3,7 0 1,6
21.10.2018 05:00:00 10,3 10,1 - - 15 8 - - WNW 1020,4 3,0 0 0,6
21.10.2018 04:00:00 10,8 10,5 - - 28 15 - - WNW 1020,3 3,7 0 0,4
21.10.2018 03:00:00 13,1 12,9 - - 31 17 48 26 WZW 1019,9 4,5 0 0,4
21.10.2018 02:00:00 13,2 13,1 - - 29 16 46 25 ZW 1020,1 1,7 0 0,4
21.10.2018 01:00:00 13,3 13,1 - - 34 18 46 25 ZW 1020,5 3,4 - 0,0
21.10.2018 00:00:00 13,2 13,0 - - 34 18 48 26 ZW 1021,1 2,0 0 0,0
20.10.2018 23:00:00 13,0 12,8 - - 31 17 46 25 ZW 1021,5 3,4 0 0,0
20.10.2018 22:00:00 12,9 12,7 - - 34 18 48 26 ZW 1021,6 5 0 0,0
20.10.2018 21:00:00 12,9 12,7 - - 35 19 48 26 ZW 1022,1 6 0 0,0
20.10.2018 20:00:00 12,8 12,7 - - 31 17 46 25 ZW 1022,4 3,2 0 0,0
20.10.2018 19:00:00 12,8 12,7 - - 35 19 48 26 ZW 1022,1 4,8 0 0,0
20.10.2018 18:00:00 12,9 12,8 - - 34 18 48 26 ZW 1022,2 3,4 0 0,0
20.10.2018 17:00:00 13,1 13,0 - - 31 17 46 25 ZW 1021,9 1,7 0 0,0
20.10.2018 16:00:00 13,2 13,1 - - 34 18 50 27 ZW 1022,1 1,8 0 0,0
20.10.2018 15:00:00 13,2 13,1 - - 31 17 48 26 ZW 1022,3 1,3 0 0,0
20.10.2018 14:00:00 13,1 12,9 - - 34 18 52 28 ZZW 1022,5 1,0 0 0,0
20.10.2018 13:00:00 13,1 12,9 - - 31 17 48 26 ZW 1022,7 5 0 0,0
20.10.2018 12:00:00 13,1 12,8 - - 35 19 50 27 ZZW 1022,3 8 0 0,2
20.10.2018 11:00:00 12,9 12,6 - - 31 17 - - ZZW 1022,2 4,3 0 -
20.10.2018 10:00:00 12,8 12,4 11,7 11,7 34 18 46 25 ZZW 1021,8 8 0 0,6
20.10.2018 09:00:00 13,0 12,2 - - 29 16 50 27 ZZW 1021,3 10 0 0,0
20.10.2018 08:00:00 13,0 12,5 - - 34 18 54 29 ZZW 1021,1 11 0 0,0
20.10.2018 07:00:00 13,0 12,8 - - 34 18 46 25 Z 1020,7 1,8 0 0,0
20.10.2018 06:00:00 12,8 12,6 - - 29 16 - - Z 1020,8 3,2 0 0,2
20.10.2018 05:00:00 12,7 12,5 - - 31 17 - - Z 1021,1 3,6 0 0,0
20.10.2018 04:00:00 12,6 12,5 - - 31 17 48 26 Z 1021,4 3,7 0 0,2
20.10.2018 03:00:00 12,4 12,2 - - 34 18 - - Z 1021,6 2,8 0 0,2
20.10.2018 02:00:00 12,1 11,9 - - 31 17 - - Z 1022,0 2,7 0 0,0
20.10.2018 01:00:00 11,0 10,4 - - 31 17 46 25 Z 1022,2 4,0 - 0,0
20.10.2018 00:00:00 11,3 9,3 - - 28 15 - - Z 1022,5 10 0 0,0
19.10.2018 23:00:00 9,9 7,8 - - 22 12 - - Z 1023,1 12 0 0,0
19.10.2018 22:00:00 8,2 6,8 - - 15 8 - - Z 1023,1 11 0 0,0
19.10.2018 21:00:00 7,4 5,6 - - 11 6 - - ZZW 1023,4 11 0 0,0
19.10.2018 20:00:00 8,3 6,8 - - 11 6 - - ZW 1023,4 10 0 0,0
19.10.2018 19:00:00 8,3 6,5 - - 9 5 - - ZZW 1022,7 9 0 0,0
19.10.2018 18:00:00 8,7 6,1 - - 8 4 - - ZW 1022,4 12 0 0,0
19.10.2018 17:00:00 11,2 7,2 - - 9 5 - - W 1022,0 10 12 0,0
19.10.2018 16:00:00 12,0 7,6 - - 18 10 - - W 1022,4 12 54 0,0
19.10.2018 15:00:00 12,5 7,1 - - 26 14 - - W 1022,1 16 54 0,0
19.10.2018 14:00:00 11,7 8,3 - - 18 10 - - WZW 1021,5 9 12 0,0
19.10.2018 13:00:00 13,4 9,6 - - 26 14 - - W 1020,5 9 60 0,0
19.10.2018 12:00:00 12,7 8,8 - - 21 11 - - W 1019,6 13 54 0,0
19.10.2018 11:00:00 11,6 8,9 - - 24 13 - - W 1018,8 9 30 0,0
19.10.2018 10:00:00 10,4 9,5 11,7 11,7 21 11 59 32 W 1017,6 9 0 0,2
19.10.2018 09:00:00 11,0 10,6 - - 41 22 55 30 ZZW 1016,7 3,2 0 0,2
19.10.2018 08:00:00 10,0 9,4 - - 37 20 57 31 ZZW 1016,7 4,2 0 1,4
19.10.2018 07:00:00 10,1 8,6 - - 37 20 57 31 Z 1016,6 8 0 0,2
19.10.2018 06:00:00 9,6 8,1 - - 41 22 59 32 Z 1016,8 4,5 0 0,4
19.10.2018 05:00:00 10,4 7,3 - - 39 21 55 30 Z 1017,4 8 0 0,0
19.10.2018 04:00:00 10,3 7,1 - - 37 20 55 30 Z 1018,2 16 0 0,0
19.10.2018 03:00:00 10,7 6,2 - - 41 22 54 29 Z 1018,9 19 0 0,0
19.10.2018 02:00:00 10,7 6,3 - - 34 18 55 30 Z 1020,0 16 0 0,0
19.10.2018 01:00:00 10,4 6,2 - - 41 22 57 31 Z 1020,7 18 - 0,0
19.10.2018 00:00:00 10,7 5,9 - - 39 21 55 30 Z 1021,1 26 0 0,0
18.10.2018 23:00:00 10,5 5,8 - - 35 19 48 26 Z 1021,8 30 0 0,0
18.10.2018 22:00:00 10,5 6,1 - - 34 18 - - Z 1022,7 29 0 0,0
18.10.2018 21:00:00 10,8 6,3 - - 29 16 - - Z 1023,1 27 0 0,0
18.10.2018 20:00:00 10,7 5,8 - - 31 17 - - Z 1023,6 30 0 0,0
18.10.2018 19:00:00 10,6 6,1 - - 28 15 - - Z 1024,1 35 0 0,0
18.10.2018 18:00:00 10,0 5,9 - - 24 13 - - ZZW 1024,4 10 0 0,0
18.10.2018 17:00:00 10,8 5,9 - - 28 15 - - Z 1024,7 10 0 0,0
18.10.2018 16:00:00 10,8 7,2 - - 26 14 - - ZZW 1025,1 10 0 0,0
18.10.2018 15:00:00 10,7 6,9 - - 28 15 - - Z 1025,6 26 0 0,0
18.10.2018 14:00:00 10,2 8,2 - - 21 11 - - ZW 1026,2 10 0 0,0
18.10.2018 13:00:00 11,4 6,5 - - 18 10 - - ZZW 1026,8 30 0 0,0
18.10.2018 12:00:00 10,9 6,8 - - 16 9 - - ZZW 1027,1 30 0 0,0
18.10.2018 11:00:00 10,3 6,4 - - 21 11 - - ZZW 1027,5 10 0 0,0
18.10.2018 10:00:00 9,9 6,7 11,7 11,9 15 8 - - ZZW 1027,3 10 6 0,0
18.10.2018 09:00:00 8,9 5,9 - - 13 7 - - ZZW 1027,5 10 0 0,0
18.10.2018 08:00:00 8,3 5,2 - - 13 7 - - ZZW 1027,1 30 0 0,0
18.10.2018 07:00:00 8,9 5,1 - - 13 7 - - ZW 1027,1 30 0 0,0
18.10.2018 06:00:00 7,2 3,2 - - 13 7 - - WZW 1027,0 27 0 0,0
18.10.2018 05:00:00 7,2 3,0 - - 15 8 - - WZW 1026,7 35 0 0,0
18.10.2018 04:00:00 6,7 4,8 - - 13 7 - - WZW 1026,8 22 0 0,0
18.10.2018 03:00:00 8,7 6,2 - - 11 6 - - W 1026,7 19 0 0,0
18.10.2018 02:00:00 5,3 3,2 - - 11 6 - - W 1026,5 18 0 0,0
18.10.2018 01:00:00 7,1 4,8 - - 9 5 57 31 WZW 1026,4 19 - 0,0
18.10.2018 00:00:00 5,9 4,4 - - 5 3 - - WZW 1026,3 19 0 0,0
17.10.2018 23:00:00 7,3 4,3 - - 11 6 - - W 1025,6 30 0 0,0
17.10.2018 22:00:00 6,9 4,6 - - 9 5 - - W 1025,4 18 0 0,0
17.10.2018 21:00:00 9,3 4,9 - - 15 8 - - WNW 1025,2 17 0 0,0
17.10.2018 20:00:00 8,7 5,5 - - 13 7 - - W 1024,0 20 0 0,0
17.10.2018 19:00:00 10,0 5,3 - - 16 9 - - W 1023,0 18 0 0,0
17.10.2018 18:00:00 9,3 4,7 - - 16 9 - - W 1022,2 10 42 0,0
17.10.2018 17:00:00 10,1 5,5 - - 18 10 - - W 1021,4 10 30 0,0
17.10.2018 16:00:00 9,9 5,8 - - 21 11 - - WNW 1020,9 10 18 0,0
17.10.2018 15:00:00 11,0 5,8 - - 21 11 - - W 1020,1 20 54 0,0
17.10.2018 14:00:00 10,8 6,1 - - 26 14 - - WNW 1019,2 23 54 0,0
17.10.2018 13:00:00 10,4 8,4 - - 22 12 - - W 1018,7 19 36 0,4

tt = temperatuur
td = dauwpunt
tt -20cm = temperatuur -20cm
tt -100cm = temperatuur -100cm
ff = windsnelheid
fx = windstoten
dd = windrichting
ppp = luchtdruk
vv = zicht
sd = Zonneschijnduur
rr = neerslag

Weerstations in de omgeving